| time (UTC) | temp F | wind direction | speed MPH | gust MPH | rain 1hr in | rain 24hr in | rain mn in | humidity % | barometer mb |
| 20260507115537 | 58 | 148 | 10.0 | 17.0 | 0.00 | 0.00 | 0.00 | 84 | 1017.3 |
| 20260507114554 | 58 | 135 | 9.0 | 15.0 | 0.00 | 0.00 | 0.00 | 84 | 1017.3 |
| 20260507113531 | 58 | 138 | 11.0 | 17.0 | 0.00 | 0.00 | 0.00 | 84 | 1017.2 |
| 20260507112528 | 58 | 129 | 11.0 | 19.0 | 0.00 | 0.00 | 0.00 | 83 | 1017.3 |
| 20260507111524 | 58 | 144 | 9.0 | 17.0 | 0.00 | 0.00 | 0.00 | 82 | 1017.3 |
| 20260507110521 | 58 | 122 | 10.0 | 17.0 | 0.00 | 0.00 | 0.00 | 83 | 1017.4 |
| 20260507105518 | 58 | 139 | 10.0 | 17.0 | 0.00 | 0.00 | 0.00 | 82 | 1017.4 |
| 20260507104516 | 57 | 119 | 9.0 | 19.0 | 0.00 | 0.00 | 0.00 | 82 | 1017.3 |
| 20260507103533 | 57 | 137 | 10.0 | 19.0 | 0.00 | 0.00 | 0.00 | 82 | 1017.4 |
| 20260507102530 | 58 | 131 | 10.0 | 19.0 | 0.00 | 0.00 | 0.00 | 81 | 1017.6 |
| 20260507101527 | 57 | 126 | 9.0 | 17.0 | 0.00 | 0.00 | 0.00 | 82 | 1017.6 |
| 20260507100524 | 57 | 124 | 10.0 | 17.0 | 0.00 | 0.00 | 0.00 | 81 | 1017.6 |
| 20260507095521 | 58 | 139 | 9.0 | 16.0 | 0.00 | 0.00 | 0.00 | 81 | 1017.5 |
| 20260507094518 | 57 | 135 | 11.0 | 17.0 | 0.00 | 0.00 | 0.00 | 81 | 1017.7 |
| 20260507093536 | 58 | 155 | 10.0 | 21.0 | 0.00 | 0.00 | 0.00 | 81 | 1017.7 |
| 20260507092532 | 56 | 133 | 9.0 | 14.0 | 0.00 | 0.00 | 0.00 | 84 | 1017.6 |
| 20260507091529 | 57 | 140 | 10.0 | 19.0 | 0.00 | 0.00 | 0.00 | 84 | 1017.6 |
| 20260507090527 | 56 | 138 | 11.0 | 21.0 | 0.00 | 0.00 | 0.00 | 85 | 1017.7 |
| 20260507085523 | 56 | 140 | 10.0 | 17.0 | 0.00 | 0.00 | 0.00 | 84 | 1017.7 |
| 20260507084541 | 55 | 141 | 9.0 | 18.0 | 0.00 | 0.00 | 0.00 | 85 | 1017.6 |
| 20260507083518 | 56 | 139 | 10.0 | 16.0 | 0.00 | 0.00 | 0.00 | 84 | 1017.6 |
| 20260507082535 | 56 | 162 | 11.0 | 18.0 | 0.00 | 0.00 | 0.00 | 85 | 1017.6 |
| 20260507081532 | 55 | 143 | 10.0 | 17.0 | 0.00 | 0.00 | 0.00 | 85 | 1017.6 |
| 20260507080529 | 55 | 148 | 9.0 | 18.0 | 0.00 | 0.00 | 0.00 | 82 | 1017.5 |
| 20260507075526 | 56 | 163 | 10.0 | 16.0 | 0.00 | 0.00 | 0.00 | 83 | 1017.7 |
| 20260507074543 | 55 | 156 | 8.0 | 13.0 | 0.00 | 0.00 | 0.00 | 82 | 1017.8 |
| 20260507073520 | 57 | 170 | 9.0 | 13.0 | 0.00 | 0.00 | 0.00 | 81 | 1017.8 |
| 20260507072517 | 56 | 161 | 10.0 | 15.0 | 0.00 | 0.00 | 0.00 | 82 | 1017.7 |
| 20260507071534 | 58 | 164 | 10.0 | 15.0 | 0.00 | 0.00 | 0.00 | 76 | 1017.7 |
| 20260507070531 | 57 | 171 | 9.0 | 12.0 | 0.00 | 0.00 | 0.00 | 81 | 1017.9 |
| 20260507065528 | 54 | 158 | 11.0 | 14.0 | 0.00 | 0.00 | 0.00 | 86 | 1017.9 |
| 20260507064525 | 55 | 179 | 10.0 | 12.0 | 0.00 | 0.00 | 0.00 | 96 | 1017.8 |
| 20260507063542 | 53 | 174 | 10.0 | 13.0 | 0.00 | 0.00 | 0.00 | 99 | 1017.7 |
| 20260507062519 | 52 | 187 | 11.0 | 13.0 | 0.00 | 0.00 | 0.00 | 99 | 1017.9 |
| 20260507061516 | 51 | 191 | 11.0 | 14.0 | 0.00 | 0.00 | 0.00 | 99 | 1017.9 |
| 20260507060534 | 51 | 183 | 13.0 | 15.0 | 0.00 | 0.00 | 0.00 | 99 | 1017.9 |
| 20260507055550 | 51 | 181 | 11.0 | 13.0 | 0.00 | 0.00 | 0.00 | 99 | 1017.8 |
| 20260507054527 | 51 | 181 | 10.0 | 12.0 | 0.00 | 0.00 | 0.00 | 99 | 1017.9 |
| 20260507053524 | 49 | 183 | 11.0 | 13.0 | 0.00 | 0.00 | 0.00 | 99 | 1017.8 |
| 20260507052541 | 48 | 179 | 11.0 | 13.0 | 0.00 | 0.00 | 0.00 | 99 | 1017.7 |
| 20260507051519 | 48 | 181 | 10.0 | 11.0 | 0.00 | 0.00 | 0.00 | 99 | 1017.6 |
| 20260507050536 | 47 | 189 | 11.0 | 13.0 | 0.00 | 0.00 | 0.00 | 99 | 1017.6 |
| 20260507045533 | 47 | 189 | 11.0 | 13.0 | 0.00 | 0.00 | 0.00 | 99 | 1017.5 |
| 20260507044530 | 47 | 192 | 11.0 | 13.0 | 0.00 | 0.00 | 0.00 | 99 | 1017.5 |
| 20260507043526 | 47 | 189 | 11.0 | 13.0 | 0.00 | 0.00 | 0.00 | 99 | 1017.3 |
| 20260507042523 | 47 | 188 | 11.0 | 13.0 | 0.00 | 0.00 | 0.00 | 99 | 1017.4 |
| 20260507041521 | 47 | 185 | 11.0 | 16.0 | 0.00 | 0.00 | 0.00 | 99 | 1017.3 |
| 20260507040537 | 46 | 191 | 12.0 | 16.0 | 0.00 | 0.00 | 0.00 | 99 | 1017.2 |
| 20260507035534 | 46 | 192 | 11.0 | 14.0 | 0.00 | 0.00 | 0.00 | 99 | 1017.0 |
| 20260507034532 | 46 | 185 | 11.0 | 13.0 | 0.00 | 0.00 | 0.00 | 99 | 1016.7 |
| 20260507033529 | 46 | 185 | 10.0 | 13.0 | 0.00 | 0.00 | 0.00 | 99 | 1016.7 |
| 20260507032526 | 46 | 185 | 10.0 | 13.0 | 0.00 | 0.00 | 0.00 | 99 | 1016.7 |
| 20260507031523 | 45 | 190 | 10.0 | 13.0 | 0.00 | 0.00 | 0.00 | 99 | 1016.9 |
| 20260507030520 | 45 | 189 | 11.0 | 13.0 | 0.00 | 0.00 | 0.00 | 99 | 1016.8 |
| 20260507025537 | 45 | 182 | 10.0 | 14.0 | 0.00 | 0.00 | 0.00 | 99 | 1016.6 |
| 20260507024554 | 45 | 187 | 12.0 | 15.0 | 0.00 | 0.00 | 0.00 | 99 | 1016.6 |
| 20260507023530 | 45 | 192 | 11.0 | 14.0 | 0.00 | 0.00 | 0.00 | 99 | 1016.6 |
| 20260507022528 | 45 | 190 | 12.0 | 14.0 | 0.00 | 0.00 | 0.00 | 99 | 1016.6 |
| 20260507021525 | 45 | 185 | 12.0 | 14.0 | 0.00 | 0.00 | 0.00 | 99 | 1016.6 |
| 20260507020521 | 45 | 192 | 14.0 | 17.0 | 0.00 | 0.00 | 0.00 | 99 | 1016.5 |
| 20260507015538 | 46 | 193 | 11.0 | 14.0 | 0.00 | 0.00 | 0.00 | 99 | 1016.3 |
| 20260507014536 | 46 | 193 | 12.0 | 14.0 | 0.00 | 0.00 | 0.00 | 99 | 1016.3 |
| 20260507013533 | 46 | 188 | 11.0 | 13.0 | 0.00 | 0.00 | 0.00 | 98 | 1016.3 |
| 20260507012530 | 46 | 186 | 10.0 | 12.0 | 0.00 | 0.00 | 0.00 | 98 | 1016.1 |
| 20260507011526 | 46 | 182 | 12.0 | 14.0 | 0.00 | 0.00 | 0.00 | 98 | 1016.0 |
| 20260507010544 | 47 | 182 | 11.0 | 14.0 | 0.00 | 0.00 | 0.00 | 98 | 1016.1 |
| 20260507005521 | 47 | 180 | 11.0 | 14.0 | 0.00 | 0.00 | 0.00 | 98 | 1016.2 |
| 20260507004518 | 47 | 186 | 10.0 | 11.0 | 0.00 | 0.00 | 0.00 | 97 | 1016.3 |
| 20260507003555 | 47 | 188 | 10.0 | 11.0 | 0.00 | 0.00 | 0.00 | 97 | 1016.2 |
| 20260507002531 | 47 | 183 | 10.0 | 11.0 | 0.00 | 0.00 | 0.00 | 96 | 1016.1 |
| 20260507001529 | 47 | 191 | 12.0 | 13.0 | 0.00 | 0.00 | 0.00 | 96 | 1016.1 |
| 20260507000546 | 47 | 190 | 11.0 | 13.0 | 0.00 | 0.00 | 0.00 | 95 | 1016.2 |
| 20260506235543 | 48 | 192 | 11.0 | 13.0 | 0.00 | 0.00 | 0.00 | 94 | 1016.1 |
| 20260506234539 | 48 | 189 | 10.0 | 12.0 | 0.00 | 0.00 | 0.00 | 93 | 1016.1 |
| 20260506233516 | 49 | 185 | 10.0 | 12.0 | 0.00 | 0.00 | 0.00 | 91 | 1016.2 |
| 20260506232534 | 50 | 180 | 10.0 | 12.0 | 0.00 | 0.00 | 0.00 | 90 | 1016.3 |
| 20260506231531 | 50 | 178 | 10.0 | 13.0 | 0.00 | 0.00 | 0.00 | 88 | 1016.2 |
| 20260506230528 | 50 | 174 | 10.0 | 12.0 | 0.00 | 0.00 | 0.00 | 87 | 1016.1 |
| 20260506225525 | 50 | 176 | 10.0 | 13.0 | 0.00 | 0.00 | 0.00 | 88 | 1016.1 |
| 20260506224522 | 51 | 178 | 11.0 | 12.0 | 0.00 | 0.00 | 0.00 | 92 | 1016.4 |
| 20260506223519 | 51 | 177 | 9.0 | 10.0 | 0.00 | 0.00 | 0.00 | 92 | 1016.4 |
| 20260506222536 | 52 | 167 | 10.0 | 12.0 | 0.00 | 0.00 | 0.00 | 92 | 1016.3 |
| 20260506221533 | 52 | 168 | 10.0 | 13.0 | 0.00 | 0.00 | 0.00 | 92 | 1016.5 |
| 20260506220551 | 52 | 161 | 9.0 | 13.0 | 0.00 | 0.00 | 0.00 | 91 | 1016.5 |
| 20260506215527 | 52 | 171 | 9.0 | 11.0 | 0.00 | 0.00 | 0.00 | 92 | 1016.7 |
| 20260506214524 | 53 | 159 | 9.0 | 12.0 | 0.00 | 0.00 | 0.00 | 92 | 1016.7 |
| 20260506213521 | 53 | 154 | 9.0 | 12.0 | 0.00 | 0.00 | 0.00 | 92 | 1016.6 |
| 20260506212539 | 53 | 163 | 9.0 | 12.0 | 0.00 | 0.00 | 0.00 | 92 | 1016.5 |
| 20260506211515 | 53 | 162 | 9.0 | 13.0 | 0.00 | 0.00 | 0.00 | 92 | 1016.5 |
| 20260506210533 | 53 | 148 | 9.0 | 15.0 | 0.00 | 0.00 | 0.00 | 92 | 1016.4 |
| 20260506205550 | 53 | 162 | 8.0 | 13.0 | 0.00 | 0.00 | 0.00 | 92 | 1016.5 |
| 20260506204526 | 53 | 158 | 10.0 | 14.0 | 0.00 | 0.00 | 0.00 | 92 | 1016.6 |
| 20260506203523 | 53 | 163 | 8.0 | 13.0 | 0.00 | 0.00 | 0.00 | 92 | 1016.3 |
| 20260506202520 | 53 | 164 | 8.0 | 13.0 | 0.00 | 0.00 | 0.00 | 91 | 1016.3 |
| 20260506201517 | 53 | 165 | 8.0 | 13.0 | 0.00 | 0.00 | 0.00 | 91 | 1016.4 |
| 20260506200534 | 53 | 163 | 9.0 | 11.0 | 0.00 | 0.00 | 0.00 | 90 | 1016.4 |
| 20260506195531 | 53 | 163 | 9.0 | 13.0 | 0.00 | 0.00 | 0.00 | 89 | 1016.4 |
| 20260506194528 | 53 | 161 | 9.0 | 13.0 | 0.00 | 0.00 | 0.00 | 89 | 1016.4 |
| 20260506193525 | 53 | 165 | 9.0 | 13.0 | 0.00 | 0.00 | 0.00 | 89 | 1016.3 |
| 20260506192522 | 53 | 160 | 9.0 | 13.0 | 0.00 | 0.00 | 0.00 | 89 | 1016.3 |
| 20260506191519 | 53 | 169 | 9.0 | 11.0 | 0.00 | 0.00 | 0.00 | 89 | 1016.3 |
| 20260506190516 | 53 | 155 | 9.0 | 13.0 | 0.00 | 0.00 | 0.00 | 89 | 1016.2 |
| 20260506185553 | 53 | 164 | 9.0 | 15.0 | 0.00 | 0.00 | 0.00 | 89 | 1016.2 |
| 20260506184530 | 53 | 154 | 8.0 | 12.0 | 0.00 | 0.00 | 0.00 | 90 | 1016.1 |
| 20260506183527 | 54 | 146 | 10.0 | 15.0 | 0.00 | 0.00 | 0.00 | 90 | 1016.0 |
| 20260506182524 | 54 | 150 | 8.0 | 14.0 | 0.00 | 0.00 | 0.00 | 90 | 1016.0 |
| 20260506181521 | 54 | 151 | 9.0 | 13.0 | 0.00 | 0.00 | 0.00 | 90 | 1015.8 |
| 20260506180518 | 54 | 161 | 8.0 | 12.0 | 0.00 | 0.00 | 0.00 | 90 | 1015.8 |
| 20260506175535 | 54 | 154 | 9.0 | 15.0 | 0.00 | 0.00 | 0.00 | 89 | 1015.8 |
| 20260506174552 | 54 | 147 | 9.0 | 15.0 | 0.00 | 0.00 | 0.00 | 89 | 1015.6 |
| 20260506173529 | 54 | 146 | 9.0 | 14.0 | 0.00 | 0.00 | 0.00 | 88 | 1015.6 |
| 20260506172527 | 55 | 155 | 9.0 | 15.0 | 0.00 | 0.00 | 0.00 | 88 | 1015.5 |
| 20260506171523 | 55 | 145 | 9.0 | 15.0 | 0.00 | 0.00 | 0.00 | 88 | 1015.5 |
| 20260506170600 | 55 | 138 | 9.0 | 15.0 | 0.00 | 0.00 | 0.00 | 87 | 1015.4 |
| 20260506165517 | 55 | 147 | 8.0 | 13.0 | 0.00 | 0.00 | 0.00 | 86 | 1015.2 |
| 20260506164534 | 56 | 142 | 10.0 | 15.0 | 0.00 | 0.00 | 0.00 | 84 | 1015.2 |
| 20260506163531 | 56 | 140 | 11.0 | 15.0 | 0.00 | 0.00 | 0.00 | 83 | 1015.3 |
| 20260506162528 | 57 | 157 | 9.0 | 13.0 | 0.00 | 0.00 | 0.00 | 81 | 1015.3 |
| 20260506161525 | 57 | 133 | 10.0 | 14.0 | 0.00 | 0.00 | 0.00 | 81 | 1015.2 |
| 20260506160522 | 57 | 137 | 10.0 | 15.0 | 0.00 | 0.00 | 0.00 | 80 | 1015.3 |
| 20260506155518 | 57 | 136 | 10.0 | 16.0 | 0.00 | 0.00 | 0.00 | 80 | 1015.3 |
| 20260506154536 | 58 | 147 | 9.0 | 15.0 | 0.00 | 0.00 | 0.00 | 78 | 1015.1 |
| 20260506153553 | 58 | 165 | 10.0 | 16.0 | 0.00 | 0.00 | 0.00 | 75 | 1015.3 |
| 20260506152529 | 58 | 155 | 9.0 | 15.0 | 0.00 | 0.00 | 0.00 | 75 | 1015.4 |
| 20260506151526 | 58 | 144 | 9.0 | 16.0 | 0.00 | 0.00 | 0.00 | 75 | 1015.4 |
| 20260506150524 | 58 | 152 | 9.0 | 15.0 | 0.00 | 0.00 | 0.00 | 74 | 1015.4 |
| 20260506145520 | 59 | 150 | 9.0 | 16.0 | 0.00 | 0.00 | 0.00 | 73 | 1015.5 |
| 20260506144517 | 59 | 163 | 9.0 | 16.0 | 0.00 | 0.00 | 0.00 | 73 | 1015.5 |
| 20260506143535 | 59 | 158 | 8.0 | 15.0 | 0.00 | 0.00 | 0.00 | 73 | 1015.5 |
| 20260506142531 | 60 | 158 | 8.0 | 16.0 | 0.00 | 0.00 | 0.00 | 71 | 1015.5 |
| 20260506141528 | 60 | 143 | 11.0 | 17.0 | 0.00 | 0.00 | 0.00 | 70 | 1015.5 |
| 20260506140525 | 60 | 149 | 10.0 | 18.0 | 0.00 | 0.00 | 0.00 | 70 | 1015.5 |
| 20260506135522 | 60 | 164 | 9.0 | 16.0 | 0.00 | 0.00 | 0.00 | 68 | 1015.5 |
| 20260506134519 | 60 | 120 | 9.0 | 16.0 | 0.00 | 0.00 | 0.00 | 66 | 1015.3 |
| 20260506133516 | 61 | 138 | 10.0 | 20.0 | 0.00 | 0.00 | 0.00 | 63 | 1015.5 |
| 20260506132553 | 61 | 124 | 8.0 | 19.0 | 0.00 | 0.00 | 0.00 | 63 | 1015.4 |
| 20260506131530 | 61 | 127 | 10.0 | 29.0 | 0.00 | 0.00 | 0.00 | 60 | 1015.4 |
| 20260506130547 | 63 | 161 | 10.0 | 20.0 | 0.00 | 0.00 | 0.00 | 56 | 1015.5 |
| 20260506125524 | 62 | 121 | 9.0 | 15.0 | 0.00 | 0.00 | 0.00 | 55 | 1015.5 |
| 20260506124521 | 62 | 126 | 11.0 | 18.0 | 0.00 | 0.00 | 0.00 | 53 | 1015.6 |
| 20260506123518 | 62 | 119 | 9.0 | 16.0 | 0.00 | 0.00 | 0.00 | 49 | 1015.6 |
| 20260506122535 | 62 | 138 | 9.0 | 17.0 | 0.00 | 0.00 | 0.00 | 50 | 1015.8 |
| 20260506121552 | 62 | 133 | 10.0 | 20.0 | 0.00 | 0.00 | 0.00 | 52 | 1015.8 |
| 20260506120529 | 62 | 129 | 11.0 | 19.0 | 0.00 | 0.00 | 0.00 | 55 | 1015.9 |